Wind_Speed
51 57 59 58 49 53 58 58 56 56 52 54 59 62 61 61 62 64 65 65 65 66 67 68 67 69 69 68 66 65 65 65 64 61 61 61 60 58 56 58 58 56 52
47 50 48 44 50 54 56 59 58 57 60 58 54 49 56 57 58 61 56 58 56 57 56 54 55 54 54 51 52 49 44 40 40 42 44 44 43 42 42 40 42 43 43
41 48 51 51 50 47 49 42 42 41 42 39 41 40 40 42 42 41 42 42 44 45 42 40 39 38 38 37 37 37 38 36 35 37 37 36 36 38 36 34 34 36 37
38 40 41 44 43 44 44 43 42 40 40 41 42 41 39 39 38 39 36 35 35 34 32 30 32 33 33 35 36 35 33 30 29 29 31 32 28 30 29 28 29 30 31
36 37 38 43 44 45 47 47 44 42 42 42 41 41 43 41 39 37 36 34 33 33 32 33 34 34 36 37 37 37 35 29 27 27 26 26 22 27 28 29 30 29 29
33 36 39 41 44 44 43 41 40 42 42 43 43 42 41 42 43 41 40 40 39 39 38 37 38 36 36 38 39 38 37 32 29 30 29 31 28 31 29 28 27 27 27
27 29 32 34 34 34 38 40 40 38 38 38 41 43 43 43 43 44 43 43 43 43 44 45 44 44 45 43 42 39 38 37 34 32 31 33 30 32 30 26 26 26 26
34 36 36 37 39 41 42 43 43 44 44 44 43 42 42 45 46 47 47 46 47 48 49 50 50 50 47 43 44 43 42 40 38 35 34 33 33 31 29 27 26 28 28
30 33 35 37 40 43 45 45 45 45 45 46 46 45 45 45 45 47 50 51 52 52 51 51 50 49 48 46 43 43 44 44 39 38 35 35 35 34 32 33 34 33 33
28 31 35 37 38 39 39 40 41 42 43 43 41 42 43 43 45 48 49 50 52 55 55 56 56 55 55 52 50 46 45 46 43 43 38 41 36 36 37 40 40 37 36
30 32 37 38 37 39 38 39 39 39 38 37 37 38 40 43 44 44 45 47 50 50 50 51 53 56 56 54 49 47 48 47 47 45 42 45 44 41 41 41 41 41 35
33 36 37 40 42 37 34 33 30 29 33 34 33 35 39 40 41 42 43 45 48 48 50 51 52 51 50 51 51 51 50 50 47 43 44 44 39 37 37 41 44 44 41
37 39 41 41 37 36 33 32 33 34 34 35 37 38 39 38 39 41 42 43 44 44 46 48 51 52 54 55 55 53 53 55 54 47 48 43 34 27 33 41 42 45 45
41 44 39 39 36 31 35 32 31 33 35 36 36 37 39 38 39 41 42 45 46 45 45 46 47 49 52 55 58 60 59 56 62 59 59 53 47 41 38 43 40 39 44
43 40 37 34 36 41 43 42 41 40 44 47 46 46 48 48 48 48 48 48 47 49 49 48 49 51 52 54 57 60 64 65 64 65 68 69 65 56 49 53 51 44 42
42 39 38 38 42 42 44 46 46 48 49 50 52 53 55 57 58 57 59 61 61 60 58 57 57 56 54 55 58 61 65 67 70 72 71 71 75 72 71 63 49 50 51
44 42 43 41 43 41 44 48 50 51 53 55 58 59 61 63 64 65 67 70 73 73 72 70 70 74 74 74 72 65 66 72 74 75 76 78 77 78 78 77 68 64 52
44 43 44 45 46 47 48 51 53 55 58 59 62 65 67 69 70 73 74 77 79 79 81 84 86 89 89 89 88 84 79 75 76 79 80 82 82 84 83 80 81 75 70
44 45 46 49 49 51 51 55 56 58 59 62 66 69 72 75 77 80 81 81 82 82 83 88 96 98 100 100 95 92 87 82 80 78 83 85 87 86 85 88 85 83 81
49 51 51 54 54 56 57 59 63 64 66 68 72 77 79 82 84 87 87 85 84 84 93 100 104 108 107 102 99 95 90 86 82 83 83 86 88 90 90 87 88 89 85
52 53 55 58 61 60 61 62 65 67 70 72 76 81 83 86 87 88 87 85 86 94 102 108 112 112 109 103 99 95 93 87 83 84 85 87 88 91 92 94 89 88 89
60 62 64 65 66 67 68 70 72 74 75 76 79 86 87 89 89 88 85 93 100 104 113 119 119 118 110 104 99 92 84 86 84 83 86 87 90 92 93 95 95 93 90
64 66 69 71 71 71 76 77 76 78 79 81 88 91 92 91 91 91 96 103 109 116 119 123 122 119 104 101 93 84 76 75 78 82 83 86 89 92 94 95 97 95 95
69 69 72 73 75 77 79 79 81 81 84 90 93 95 96 94 95 101 108 112 116 121 123 123 122 113 101 92 88 80 74 70 72 74 81 86 88 92 95 97 99 99 98
76 74 75 77 81 81 83 86 85 90 93 95 98 100 100 99 102 110 116 120 124 125 125 123 119 106 97 93 85 81 77 73 71 70 74 84 89 92 94 98 101 101 101
81 80 79 83 85 87 88 89 92 95 97 99 101 101 101 109 114 118 120 126 129 127 124 119 110 99 97 92 89 82 76 71 65 64 64 73 82 91 91 94 98 101 102
Wind_Direction
261 271 274 275 282 285 289 289 286 286 287 288 287 283 284 280 280 280 279 278 278 280 280 280 278 276 277 278 279 278 278 279 279 278 277 278 278 277 276 277 277 278 279
262 270 277 283 285 288 286 287 290 289 288 289 289 287 286 286 286 282 280 280 281 281 278 279 279 279 278 276 277 277 278 279 283 283 282 278 277 278 279 278 279 279 278
262 266 272 285 283 285 288 294 292 291 289 290 288 288 289 288 285 283 282 281 279 277 279 280 281 283 283 284 286 285 282 283 283 282 280 277 279 278 278 279 280 281 283
275 277 280 280 283 284 286 288 289 290 291 292 292 291 290 288 284 282 280 281 281 280 282 285 288 291 293 292 288 286 285 284 283 284 282 281 276 274 277 281 284 286 287
278 280 281 283 285 286 287 289 290 288 286 287 290 291 291 290 286 279 279 279 278 281 281 285 288 289 291 292 289 285 283 282 282 281 278 280 279 279 283 286 284 285 289
279 280 280 282 284 287 291 293 292 289 288 286 284 285 286 288 287 284 280 281 283 280 275 280 282 284 289 289 288 283 281 274 271 272 270 272 274 273 278 284 284 283 284
281 283 285 288 288 289 292 295 296 295 293 291 286 282 281 280 279 280 281 281 281 282 283 285 284 285 289 289 288 285 277 276 270 270 270 271 271 272 275 270 276 279 284
289 292 290 289 289 289 291 290 289 289 288 290 290 288 285 279 278 279 279 280 280 281 282 282 282 284 285 286 287 283 281 273 272 271 272 271 270 270 265 262 271 275 278
305 299 297 295 292 289 289 289 289 287 286 286 287 287 285 283 282 280 278 277 279 281 281 280 281 281 281 284 284 277 278 276 275 269 272 272 273 264 260 262 268 276 284
306 304 305 303 300 299 297 295 292 289 290 286 289 288 288 287 285 284 284 282 281 281 282 281 280 281 281 281 281 275 271 272 272 272 272 276 270 268 266 264 267 272 280
305 303 305 306 301 301 298 297 296 291 288 289 288 289 289 287 287 287 286 286 285 285 286 286 285 282 281 280 277 270 269 268 266 270 274 275 278 282 280 272 270 272 274
304 304 303 303 301 300 302 298 292 291 291 291 294 295 294 292 290 291 291 290 286 285 284 284 284 283 283 283 279 271 267 269 265 266 264 271 273 273 285 276 271 271 271
303 305 305 303 299 302 303 304 300 300 300 299 297 298 299 300 300 296 294 294 291 291 288 286 284 283 282 281 279 275 269 264 264 261 261 256 265 253 264 275 276 273 271
303 304 302 303 305 311 313 314 314 316 316 315 313 312 310 310 308 304 302 299 296 294 291 288 285 283 281 280 278 274 271 266 263 255 259 260 250 253 258 256 260 269 276
301 303 305 302 305 309 311 313 313 312 312 315 314 315 316 314 312 310 309 306 303 297 294 292 288 286 283 280 279 277 274 268 260 260 254 257 254 250 248 252 261 261 266
303 298 302 301 306 308 309 312 312 313 316 316 316 316 317 314 316 313 310 310 309 306 302 298 296 293 288 283 279 275 272 270 267 259 255 252 256 253 251 249 247 254 258
300 298 299 301 305 304 304 308 312 313 315 315 316 316 315 315 314 313 312 311 312 312 311 309 307 310 307 304 298 285 276 269 264 263 261 255 250 251 252 250 251 252 247
300 298 300 300 303 306 303 306 309 311 316 315 314 313 313 313 314 315 314 314 314 315 314 313 312 310 307 304 300 295 288 278 267 261 259 257 255 251 249 249 247 246 248
298 298 300 302 304 306 306 308 309 312 312 311 311 313 314 314 315 314 314 314 315 314 310 308 309 307 305 302 299 295 291 284 276 266 257 256 254 254 252 249 247 245 243
295 300 301 304 305 308 305 305 309 310 310 309 311 312 313 313 313 313 314 315 312 308 306 307 306 305 304 301 299 295 290 283 276 268 262 255 253 251 251 250 248 246 245
300 303 304 305 306 305 304 304 305 308 307 307 309 311 312 312 313 312 313 309 306 305 306 306 306 306 304 301 298 294 290 282 275 267 263 259 254 251 249 247 247 245 244
301 304 303 304 305 306 305 305 306 306 306 305 307 308 311 312 313 311 308 305 306 306 307 308 307 308 305 302 298 293 288 282 272 266 261 258 255 252 248 247 247 244 242
303 303 303 305 305 304 304 305 305 305 305 305 306 309 309 312 310 307 305 304 307 308 308 308 308 309 306 304 300 294 285 276 271 269 262 257 255 253 250 247 246 244 242
301 302 303 304 303 304 304 304 304 304 303 305 307 309 311 310 307 305 306 308 309 309 309 309 309 309 306 304 302 296 286 275 266 263 263 259 253 249 248 247 245 243 241
298 300 300 301 303 303 303 303 303 304 305 306 307 309 309 307 305 307 308 310 309 311 310 312 312 309 307 307 303 298 290 279 270 260 253 258 257 254 248 244 244 243 241
298 297 299 302 302 302 302 303 302 304 305 307 307 307 305 305 308 309 309 309 312 312 313 313 312 309 309 307 305 300 293 286 278 269 258 251 254 254 251 250 245 242 241
Height
10836 10831 10830 10828 10828 10827 10826 10825 10824 10825 10824 10822 10820 10818 10817 10817 10816 10815 10814 10813 10812 10809 10807 10805 10803 10801 10799 10797 10795 10792 10791 10789 10786 10784 10782 10779 10777 10775 10774 10773 10772 10771 10769
10828 10826 10823 10822 10823 10819 10817 10817 10816 10814 10814 10813 10812 10808 10807 10806 10805 10803 10802 10801 10799 10798 10795 10794 10792 10790 10788 10786 10783 10781 10780 10779 10777 10775 10773 10772 10768 10767 10766 10765 10763 10762 10760
10825 10822 10819 10815 10813 10814 10813 10811 10809 10807 10806 10805 10804 10802 10800 10797 10796 10795 10794 10793 10791 10790 10787 10786 10784 10782 10780 10778 10776 10774 10773 10771 10769 10767 10765 10764 10762 10761 10760 10759 10757 10755 10752
10819 10817 10814 10810 10809 10808 10808 10807 10804 10801 10800 10798 10796 10794 10792 10791 10790 10788 10786 10785 10783 10783 10781 10780 10778 10776 10773 10771 10769 10767 10766 10765 10763 10760 10757 10755 10757 10754 10753 10752 10751 10749 10746
10815 10813 10811 10807 10806 10804 10803 10802 10799 10796 10793 10791 10789 10787 10785 10784 10783 10782 10780 10778 10777 10777 10775 10772 10771 10769 10767 10765 10763 10761 10759 10758 10756 10754 10751 10748 10749 10747 10747 10746 10745 10744 10743
10812 10810 10807 10804 10803 10801 10798 10795 10792 10789 10787 10785 10783 10780 10778 10776 10774 10774 10772 10771 10770 10768 10766 10766 10764 10762 10760 10758 10756 10754 10751 10749 10747 10745 10743 10741 10742 10740 10740 10739 10738 10737 10737
10808 10806 10804 10801 10798 10795 10791 10788 10785 10782 10780 10777 10775 10773 10771 10769 10767 10765 10764 10763 10761 10759 10759 10757 10755 10753 10752 10750 10749 10747 10744 10741 10739 10738 10736 10735 10736 10733 10732 10732 10732 10731 10731
10802 10801 10799 10796 10792 10789 10785 10782 10778 10775 10772 10770 10768 10766 10764 10761 10759 10757 10756 10755 10753 10752 10751 10749 10747 10746 10745 10743 10741 10738 10735 10732 10731 10733 10732 10729 10729 10728 10726 10726 10725 10724 10723
10795 10793 10792 10789 10786 10782 10779 10774 10770 10767 10764 10762 10760 10758 10755 10753 10750 10748 10745 10744 10743 10741 10740 10740 10739 10737 10737 10736 10733 10729 10727 10723 10727 10725 10725 10723 10723 10722 10720 10720 10719 10718 10716
10789 10787 10785 10782 10779 10775 10772 10767 10762 10759 10757 10754 10752 10749 10746 10745 10742 10740 10737 10736 10734 10731 10731 10729 10728 10729 10728 10727 10725 10721 10717 10717 10717 10717 10717 10713 10712 10712 10712 10712 10713 10711 10710
10783 10780 10777 10774 10770 10767 10763 10759 10756 10752 10749 10746 10744 10741 10738 10737 10734 10731 10729 10727 10724 10723 10722 10719 10718 10717 10717 10716 10714 10712 10709 10708 10708 10708 10706 10704 10703 10704 10703 10703 10705 10705 10704
10776 10773 10770 10767 10763 10759 10755 10752 10749 10745 10743 10740 10737 10734 10731 10729 10726 10724 10722 10720 10715 10715 10712 10710 10707 10706 10706 10703 10703 10703 10700 10699 10698 10699 10695 10695 10693 10695 10694 10692 10695 10696 10696
10769 10766 10762 10759 10756 10753 10750 10747 10743 10739 10736 10734 10730 10727 10724 10722 10719 10716 10714 10711 10707 10707 10702 10700 10697 10696 10694 10693 10690 10688 10688 10687 10687 10690 10686 10684 10683 10685 10687 10687 10687 10686 10686
10761 10759 10755 10752 10749 10746 10744 10740 10737 10733 10729 10726 10724 10721 10716 10714 10711 10708 10705 10700 10699 10696 10693 10691 10688 10686 10684 10682 10678 10674 10672 10674 10672 10673 10673 10674 10675 10675 10677 10677 10675 10675 10674
10753 10750 10747 10744 10741 10738 10735 10732 10729 10725 10722 10715 10713 10711 10706 10703 10701 10698 10694 10690 10688 10685 10682 10677 10674 10672 10670 10668 10667 10663 10659 10656 10655 10654 10658 10656 10660 10662 10665 10665 10665 10665 10664
10745 10742 10739 10736 10733 10729 10726 10723 10720 10716 10712 10706 10701 10699 10694 10692 10688 10685 10680 10676 10673 10670 10667 10662 10658 10656 10654 10653 10651 10649 10642 10638 10636 10637 10637 10640 10640 10643 10649 10649 10651 10653 10654
10736 10733 10730 10726 10723 10720 10716 10712 10709 10705 10701 10695 10690 10686 10682 10678 10675 10671 10666 10660 10655 10652 10648 10644 10639 10636 10633 10632 10630 10629 10626 10619 10616 10615 10616 10619 10621 10620 10623 10628 10637 10639 10640
10727 10723 10719 10716 10712 10709 10705 10701 10698 10694 10689 10683 10679 10675 10670 10665 10661 10655 10650 10644 10638 10634 10629 10623 10620 10616 10614 10610 10606 10603 10599 10597 10594 10593 10592 10591 10595 10601 10602 10608 10613 10617 10621
10716 10713 10709 10705 10702 10698 10694 10690 10685 10681 10677 10671 10666 10660 10656 10650 10644 10638 10632 10626 10619 10616 10610 10605 10601 10597 10593 10585 10581 10574 10569 10568 10569 10567 10565 10565 10569 10572 10577 10582 10588 10593 10603
10704 10701 10699 10695 10691 10687 10683 10677 10673 10667 10663 10657 10652 10644 10640 10634 10628 10621 10614 10608 10602 10598 10590 10584 10579 10570 10566 10560 10552 10544 10537 10534 10537 10536 10537 10537 10540 10545 10548 10554 10561 10569 10578
10693 10690 10687 10683 10678 10673 10669 10664 10659 10654 10648 10642 10637 10630 10625 10616 10611 10603 10597 10590 10585 10580 10569 10561 10554 10542 10531 10527 10522 10514 10504 10499 10501 10502 10505 10507 10510 10515 10521 10526 10534 10542 10552
10681 10677 10672 10668 10664 10659 10653 10649 10644 10639 10632 10627 10622 10615 10608 10601 10592 10583 10576 10569 10563 10555 10543 10529 10520 10509 10497 10490 10487 10483 10478 10462 10465 10468 10470 10474 10475 10484 10489 10496 10504 10515 10524
10667 10663 10657 10653 10650 10644 10638 10632 10627 10621 10615 10609 10602 10595 10588 10582 10573 10565 10558 10547 10539 10529 10516 10502 10489 10478 10467 10453 10444 10444 10446 10442 10434 10429 10434 10439 10444 10447 10455 10465 10473 10482 10492
10651 10649 10643 10638 10634 10630 10623 10616 10610 10603 10597 10590 10582 10575 10567 10561 10553 10543 10533 10522 10513 10499 10485 10471 10458 10445 10433 10425 10413 10405 10407 10411 10410 10409 10398 10398 10406 10412 10418 10428 10437 10446 10457
10634 10633 10628 10622 10616 10613 10606 10599 10592 10586 10578 10569 10561 10553 10546 10538 10532 10519 10505 10495 10484 10473 10456 10440 10425 10413 10401 10392 10385 10375 10369 10371 10375 10382 10380 10364 10369 10374 10384 10392 10399 10409 10423
10615 10615 10611 10606 10600 10592 10587 10581 10572 10566 10558 10549 10541 10532 10523 10514 10505 10493 10480 10466 10456 10442 10426 10411 10396 10384 10373 10361 10353 10345 10339 10336 10340 10343 10351 10347 10340 10334 10349 10355 10364 10374 10385